Weather History for Kalamazoo, MI

Change the Weather History Date:

Wednesday, September 14, 2011

  Actual Average Record
Temperature  
Mean Temperature 55 °F 63 °F  
Max Temperature 65 °F 74 °F 93 °F (1952)
Min Temperature 44 °F 53 °F 33 °F (1996)
Degree Days  
Heating Degree Days 10 3  
Month to date heating degree days 28  
Since 1 July heating degree days 44  
Cooling Degree Days 0 2  
Month to date cooling degree days 40  
Year to date cooling degree days 651  
Growing Degree Days 5 (Base 50)    
Moisture  
Dew Point 46 °F    
Average Humidity 78    
Maximum Humidity 93    
Minimum Humidity 63    
Precipitation  
Precipitation 0.10 in 0.13 in 3.36 in (2008)
Month to date precipitation 1.02 1.88  
Year to date precipitation 25.47  
Sea Level Pressure  
Sea Level Pressure 30.06 in    
Wind  
Wind Speed 6 mph (WNW)    
Max Wind Speed 15 mph    
Max Gust Speed 18 mph    
Visibility 10 miles    
Events Rain    
T = Trace of Precipitation, MM = Missing Value Source: NWS Daily Summary

Daily Weather History Graph

Daily Weather History Graph

Search for Another Location

Airport:

Trip Planner

Search our weather history database for the weather conditions in past years. The results will help you decide how hot, cold, wet, or windy it might be!

Date:

Astronomy

Sep. 14, 2011 Rise Set
Actual Time 7:20 AM EDT 7:54 PM EDT
Civil Twilight 6:52 AM EDT 8:22 PM EDT
Nautical Twilight 6:19 AM EDT 8:55 PM EDT
Astronomical Twilight 5:44 AM EDT 9:29 PM EDT
Moon 8:33 PM EDT (9/14) 9:35 AM EDT (9/14)
Length of Visible Light 13h 29m
Length of Day
12h 33m
Waning Gibbous, 95% of the Moon is Illuminated
Sep 14
Waning Gibbous
Sep 20
Last Quarter
Sep 27
New
Oct 3
First Quarter
Oct 11
Full

Hourly Weather History & Observations

Time (EDT) Temp. Windchill Dew Point Humidity Pressure Visibility Wind Dir Wind Speed Gust Speed Precip Events Conditions
12:53 AM 52.0 °F - 45.0 °F 77% 29.99 in 10.0 mi Calm Calm - N/A   Clear
1:53 AM 50.0 °F - 45.0 °F 83% 29.99 in 10.0 mi Calm Calm - N/A   Clear
2:53 AM 48.9 °F - 45.0 °F 86% 29.98 in 10.0 mi Calm Calm - N/A   Clear
3:53 AM 48.0 °F - 45.0 °F 89% 29.98 in 8.0 mi Calm Calm - N/A   Clear
4:53 AM 48.0 °F - 45.0 °F 89% 29.99 in 8.0 mi Calm Calm - N/A   Clear
5:53 AM 46.4 °F - 44.6 °F 93% 30.00 in 10.0 mi Calm Calm - N/A   Clear
6:53 AM 48.0 °F - 45.0 °F 89% 30.02 in 10.0 mi Calm Calm - N/A   Clear
7:53 AM 48.2 °F - 44.6 °F 87% 30.04 in 10.0 mi SSW 5.8 mph - N/A   Clear
8:53 AM 53.6 °F - 46.4 °F 77% 30.05 in 10.0 mi SSW 4.6 mph - N/A   Clear
9:53 AM 55.9 °F - 48.0 °F 75% 30.06 in 10.0 mi Calm Calm - N/A   Overcast
10:53 AM 57.9 °F - 48.0 °F 70% 30.05 in 10.0 mi SW 4.6 mph - N/A   Partly Cloudy
11:53 AM 60.1 °F - 48.9 °F 67% 30.04 in 10.0 mi SW 4.6 mph - 0.00 in   Scattered Clouds
12:53 PM 63.0 °F - 50.0 °F 63% 30.04 in 10.0 mi WNW 6.9 mph - N/A   Scattered Clouds
1:53 PM 64.9 °F - 52.0 °F 63% 30.05 in 10.0 mi NW 12.7 mph - N/A   Overcast
2:53 PM 61.0 °F - 51.1 °F 70% 30.05 in 10.0 mi WNW 9.2 mph - 0.00 in   Overcast
3:53 PM 57.0 °F - 52.0 °F 83% 30.06 in 7.0 mi NW 8.1 mph - 0.02 in Rain Light Rain
4:53 PM 55.4 °F - 48.2 °F 77% 30.08 in 8.0 mi WNW 5.8 mph - N/A Rain Light Rain
5:00 PM 55.4 °F - 50.0 °F 82% 30.08 in 8.0 mi WNW 6.9 mph - 0.01 in Rain Light Rain
5:53 PM 54.0 °F - 48.9 °F 83% 30.10 in 10.0 mi WNW 10.4 mph - 0.04 in Rain Light Rain
6:53 PM 53.6 °F - 48.2 °F 82% 30.11 in 10.0 mi WNW 6.9 mph - N/A   Overcast
7:53 PM 52.0 °F - 44.1 °F 74% 30.12 in 10.0 mi NW 10.4 mph - N/A   Clear
8:53 PM 50.0 °F - 42.1 °F 74% 30.13 in 10.0 mi NW 11.5 mph - N/A   Clear
9:53 PM 48.0 °F - 39.9 °F 74% 30.14 in 10.0 mi NNW 11.5 mph - N/A   Clear
10:53 PM 46.9 °F - 37.9 °F 71% 30.16 in 10.0 mi NNW 9.2 mph - N/A   Clear
11:53 PM 45.0 °F 41.2 °F 37.0 °F 74% 30.16 in 10.0 mi North 6.9 mph - N/A   Clear